TECHSAT 1B (GO-32) (25397 NORAD) Tracking and Keplerian Element Data

This shows tracking and keplerian element data for the satellite.

Feedback or suggestion? Click here.




ElementValue
Catalog25397
NameTECHSAT 1B (GO-32)
Epoch Orbit26568
Epoch Day324.86232199
Epoch Year2022
RAAN275.883
Inclination98.8391
Eccentricity0.0001928
Argument of Perigee48.1104
Mean Anonmoly312.0238
Mean Motion14.23789163
Decay Rate5.3E-07
L11 25397U 98043D 22324.86232199 .00000053 00000+0 42963-4 0 9998
L22 25397 98.8391 275.8830 0001928 48.1104 312.0238 14.23789163265687



Live tracking and technical data element details for TECHSAT 1B (GO-32) (NORAD 25397). TECHSAT 1B (GO-32) can be tracked NOW for your location showing map with azimuth and elevation plus other details from your city location.







IsCatalogInMostPopularTable: catalog: 25397, numindb: 418
Update: records affected: 1



GetName: 25397 TECHSAT 1B (GO-32)

Hit Count: updated at: Fri, 02 Dec 2022 13:13:11 GMT